This demonstration page uses our WeatherBlox Daily Observations layout. Learn more.

Left ArrowRight Arrow

Hourly Observations for November 9, 2018

Temp ( °F °C ) Dew Point ( °F °C ) Humidity (%) Winds ( mph kmh ) Pressure ( in mb ) Visibility ( mi km ) Precip ( " mm )
12:52 am 00:52 Mostly Clear 30 -1.1 21 -6.1 69 69 Calm 30.31 1027 10 16 0.00 0.00
1:52 am 01:52 Mostly Clear 26 -3.3 22 -5.6 84 84 N 6 9 30.31 1026 10 16 0.00 0.00
2:52 am 02:52 Mostly Cloudy 25 -3.9 22 -5.6 88 88 NNW 3 6 30.30 1026 10 16 0.00 0.00
3:52 am 03:52 Cloudy 29 -1.7 24 -4.4 82 82 NW 8 13 30.32 1027 10 16 0.00 0.00
4:52 am 04:52 Cloudy 29 -1.7 24 -4.4 82 82 NW 5 7 30.31 1027 7 11 0.00 0.00
5:26 am 05:26 Cloudy with Light Snow 29 -1.7 25 -3.9 85 85 NNW 7 11 30.36 1028 2 2 0.00 0.03
5:39 am 05:39 Cloudy with Light Snow 29 -1.7 25 -3.9 85 85 NNW 6 9 30.36 1028 1 2 0.00 0.03
5:52 am 05:52 Cloudy with Light Snow 29 -1.7 25 -3.9 85 85 NNW 7 11 30.31 1027 1 2 0.01 0.25
6:22 am 06:22 Mostly Cloudy with Light Snow 29 -1.7 25 -3.9 85 85 NW 6 9 30.33 1027 1 2 0.01 0.25
6:46 am 06:46 Cloudy with Light Snow 28 -2 25 -4 86 86 NNW 9 15 30.39 1029 1 2 0.01 0.25
6:52 am 06:52 Cloudy with Light Snow 28 -2.2 25 -3.9 88 88 NNW 10 17 30.32 1027 1 2 0.02 0.51
7:02 am 07:02 Cloudy with Light Snow 28 -2.2 25 -3.9 88 88 NNW 9 15 30.39 1029 1 1 0.00 0.03
7:04 am 07:04 Cloudy with Light Snow 28 -2.2 25 -3.9 88 88 N 10 17 30.39 1029 1 1 0.00 0.03
7:15 am 07:15 Cloudy with Light Snow 27 -2.8 24 -4.4 89 89 N 12 19 30.39 1029 1 2 0.00 0.03
7:52 am 07:52 Cloudy with Light Snow 27 -2.8 23 -5 85 85 N 13 20 30.34 1027 2 3 0.01 0.25
8:07 am 08:07 Cloudy with Light Snow 27 -2.8 23 -5 85 85 N 10 17 30.39 1029 2 3 0.00 0.03
8:13 am 08:13 Cloudy with Light Snow 27 -2.8 23 -5 85 85 N 14 22 30.39 1029 1 2 0.00 0.03
8:22 am 08:22 Cloudy with Light Snow 27 -2.8 23 -5 85 85 N 14 22 30.42 1030 1 1 0.00 0.03
8:35 am 08:35 Cloudy with Light Snow 27 -2.8 22 -5.6 81 81 NNW 15 24 30.42 1030 2 2 0.00 0.03
8:50 am 08:50 Mostly Cloudy with Light Snow 27 -3 21 -6 80 80 NNW 16 26 30.42 1030 1 1 0.01 0.25
8:52 am 08:52 Mostly Cloudy with Light Snow 27 -2.8 22 -5.6 81 81 N 14 22 30.37 1028 1 1 0.01 0.25
9:13 am 09:13 Mostly Cloudy with Heavy Snow 26 -3.3 22 -5.6 84 84 NNW 15 24 30.45 1031 0 0 0.00 0.03
9:36 am 09:36 Cloudy with Snow 25 -3.9 20 -6.7 81 81 NNW 28 44 30.45 1031 1 1 0.00 0.03
9:52 am 09:52 Cloudy with Snow 24 -4.4 18 -7.8 77 77 N 25 41 30.42 1030 1 1 0.00 0.03
10:29 am 10:29 Cloudy with Blowing Snow 23 -5 16 -8.9 74 74 NNW 25 41 30.48 1032 3 5 0.00 0.03
10:52 am 10:52 Windy with Snow Likely 22 -5.6 15 -9.4 75 75 NNW 23 37 30.47 1032 3 5 0.00 0.03
11:52 am 11:52 Mostly Cloudy 22 -5.6 10 -12.2 60 60 NW 24 39 30.49 1033 10 16 0.00 0.03
12:04 pm 12:04 Mostly Cloudy 21 -6.1 9 -12.8 59 59 NNW 23 37 30.50 1033 10 16 0.00 0.00
12:52 pm 12:52 Partly Cloudy 21 -6.1 8 -13.3 57 57 NW 25 41 30.50 1033 10 16 0.00 0.00
1:52 pm 13:52 Partly Cloudy 22 -5.6 9 -12.8 57 57 NW 20 31 30.50 1033 10 16 0.00 0.00
2:52 pm 14:52 Cloudy 20 -6.7 10 -12.2 65 65 NW 22 35 30.52 1034 10 16 0.00 0.00
3:52 pm 15:52 Cloudy with Light Snow 21 -6.1 9 -12.8 59 59 NW 15 24 30.53 1034 9 14 0.00 0.03
4:52 pm 16:52 Mostly Cloudy 21 -6.1 10 -12.2 62 62 NW 15 24 30.53 1034 10 16 0.00 0.03
5:52 pm 17:52 Mostly Clear 19 -7.2 8 -13.3 62 62 NW 15 24 30.53 1034 10 16 0.00 0.03
6:52 pm 18:52 Clear 18 -7.8 9 -12.8 68 68 WNW 14 22 30.53 1034 10 16 0.00 0.00
7:52 pm 19:52 Clear 18 -7.8 8 -13.3 65 65 NW 13 20 30.53 1034 10 16 0.00 0.00
8:52 pm 20:52 Clear 17 -8.3 7 -13.9 64 64 WNW 10 17 30.53 1034 10 16 0.00 0.00
9:52 pm 21:52 Clear 16 -8.9 7 -13.9 67 67 W 10 17 30.53 1034 10 16 0.00 0.00
10:52 pm 22:52 Mostly Clear 16 -8.9 7 -13.9 67 67 W 12 19 30.54 1034 10 16 0.00 0.00
11:52 pm 23:52 Clear 14 -10 6 -14.4 71 71 W 8 13 30.53 1034 10 16 0.00 0.00

Powered by AerisWeather